Regional Weather Roundup
Issued by NWS Albany, NY

Home | Current Version | Previous Version | Graphics & Text | Print | Product List | Glossary On
Versions: 1 2 3 4 5 6 7 8 9 10 11 12 13 14 15 16 17 18 19 20 21 22 23 24 25 26 27 28 29 30 31 32 33 34 35 36 37 38 39 40 41 42 43 44 45 46 47 48 49 50
000
ASUS41 KALY 210810
RWRALY

NEW YORK STATE HOURLY WEATHER ROUNDUP
NATIONAL WEATHER SERVICE ALBANY NY
400 AM EDT TUE OCT 21 2014

NOTE: "FAIR" INDICATES FEW OR NO CLOUDS BELOW 12,000 FEET WITH NO
SIGNIFICANT WEATHER AND/OR NO OBSTRUCTIONS TO VISIBILITY.

NYZ032-033-038>043-046>054-057>066-NYZ062>081-210900-
EAST


CITY           SKY/WX    TMP DP  RH WIND       PRES   REMARKS
ALBANY         CLOUDY    48  43  82 CALM      29.91F
GLENS FALLS    LGT RAIN  45  41  86 CALM      29.91F
POUGHKEEPSIE   MOCLDY    50  43  77 CALM      29.91F
NEWBURGH       MOCLDY    52  43  71 CALM      29.91F
MONTGOMERY     CLOUDY    46  42  86 CALM      29.90F
WHITE PLAINS   PTCLDY    48  43  82 CALM      29.90F
ISLIP          CLOUDY    50  46  86 CALM      29.91F
NEW YORK CITY  CLOUDY    57  44  62 CALM      29.91F
CENTRAL PARK   MOCLDY    58  43  57 CALM      29.93F
$$

NYZ005>009-017-018-044>046-055-056-210900-
CENTRAL


CITY           SKY/WX    TMP DP  RH WIND       PRES   REMARKS
FULTON         CLOUDY    49  45  86 VRB3      29.83F
SYRACUSE       DRIZZLE   49  46  88 E7        29.84F
ROME           LGT RAIN  46  44  93 CALM      29.88S
ELMIRA         LGT RAIN  47  46  97 CALM      29.82F
BINGHAMTON     CLOUDY    47  41  80 SE7       29.84F
MONTICELLO     CLOUDY    45  43  93 CALM      29.90S
$$

NYZ026>034-041>043-210900-
NORTH


CITY           SKY/WX    TMP DP  RH WIND       PRES   REMARKS
WATERTOWN      CLOUDY    50  44  80 SE5       29.83S
FORT DRUM      NOT AVBL
MASSENA        LGT RAIN  44  42  93 NE9       29.90S
SARANAC LAKE   LGT RAIN  40  38  93 CALM      29.87S
PLATTSBURGH    LGT RAIN  43  41  93 CALM      29.92S
$$

NYZ001>004-010>016-019>021-210900-
WEST


CITY           SKY/WX    TMP DP  RH WIND       PRES   REMARKS
NIAGARA FALLS  LGT RAIN  51  49  92 NW7       29.77S FOG
BUFFALO        LGT RAIN  50  48  93 S10       29.76F
DUNKIRK        CLOUDY    52  49  89 NW10      29.79S
JAMESTOWN      CLOUDY    46  46 100 SW6       29.79F
WELLSVILLE     LGT RAIN  46  44  93 SW6       29.81S
ROCHESTER      LGT RAIN  50  48  93 S6        29.79S
PENN YAN       LGT RAIN  48  32  53 CALM      29.81F
$$

             KEY
       WCI = WIND CHILL INDEX
       VSB = VISIBILITY
       HX  = HEAT INDEX
$$



USA.gov is the U.S. government's official web portal to all federal, state and local government web resources and services.